CST,Max TemperatureF,Mean TemperatureF,Min TemperatureF,Max Dew PointF,MeanDew PointF,Min DewpointF,Max Humidity, Mean Humidity, Min Humidity, Max Sea Level PressureIn, Mean Sea Level PressureIn, Min Sea Level PressureIn, Max VisibilityMiles, Mean VisibilityMiles, Min VisibilityMiles, Max Wind SpeedMPH, Mean Wind SpeedMPH, Max Gust SpeedMPH,PrecipitationIn, CloudCover, Events, WindDirDegrees
2013-1-1,28,17,6,24,18,4,93,84,68,30.16,30.12,30.05,10,10,7,13,8,,0.00,4,,298
2013-1-2,20,12,3,10,5,0,92,71,55,30.22,30.17,30.14,10,10,10,10,7,,0.00,0,,208
2013-1-3,30,22,14,26,17,6,89,77,66,30.25,30.17,30.12,10,9,4,16,9,23,0.00,7,,244
2013-1-4,28,20,12,22,17,8,94,81,71,30.26,30.22,30.17,10,10,7,23,13,28,0.00,0,,236
2013-1-5,33,25,17,31,24,15,96,87,72,30.27,30.15,30.00,10,8,2,18,9,24,0.00,4,,199
2013-1-6,34,28,19,32,26,18,93,85,79,30.33,30.08,29.93,10,9,5,23,13,28,0.00,7,,253
2013-1-7,32,23,14,26,20,13,97,85,71,30.38,30.27,30.14,10,8,2,22,8,26,0.00,0,,198
2013-1-8,37,30,24,29,25,22,90,80,67,30.21,30.15,30.08,10,8,5,16,8,22,0.00,0,,185
2013-1-9,48,38,28,33,28,21,86,69,40,30.51,30.27,30.06,10,10,10,18,13,25,0.00,1,,247
2013-1-10,41,32,24,40,29,22,98,84,67,30.51,30.30,29.96,10,9,2,18,6,23,0.00,3,,117
2013-1-11,53,47,41,52,47,41,99,92,85,29.95,29.80,29.72,10,9,2,21,15,26,0.00,5,,188
2013-1-12,56,46,37,50,44,36,98,85,70,29.94,29.87,29.80,10,9,3,16,12,23,0.00,3,,254
2013-1-13,37,27,17,36,29,13,100,95,82,30.23,29.97,29.82,10,6,1,18,11,24,0.00,8,,310
2013-1-14,23,18,13,18,14,9,93,84,72,30.45,30.38,30.23,10,9,2,12,6,,0.00,5,,282
2013-1-15,29,20,11,22,17,9,97,86,68,30.41,30.31,30.11,10,8,5,6,1,,0.00,0,,80
2013-1-16,34,25,16,27,21,16,97,78,53,30.10,29.99,29.88,10,8,3,21,7,26,0.00,4,,239
2013-1-17,32,26,20,29,20,11,95,72,53,30.38,30.24,30.04,10,10,7,23,10,28,0.00,2,,311
2013-1-18,37,26,16,26,20,12,89,71,56,30.43,30.25,30.00,10,10,10,25,11,37,0.00,1,,205
2013-1-19,48,42,36,34,30,21,80,65,52,30.00,29.87,29.77,10,10,10,29,20,41,0.00,0,,229
2013-1-20,35,26,17,17,7,4,63,54,43,30.26,30.17,29.85,10,10,10,31,17,40,0.00,3,,296
2013-1-21,17,11,4,8,0,-6,83,60,48,30.24,30.15,30.11,10,9,1,22,13,29,0.00,3,,274
2013-1-22,12,6,1,-1,-6,-8,66,56,43,30.36,30.31,30.23,10,10,10,15,11,21,0.00,0,,268
2013-1-23,20,14,9,15,4,-3,85,60,44,30.32,30.21,30.09,10,9,2,21,10,29,0.00,8,,257
2013-1-24,18,12,7,14,8,2,92,74,50,30.60,30.47,30.23,10,8,1,22,8,30,0.00,3,,89
2013-1-25,26,22,17,21,15,-2,91,76,39,30.37,30.11,29.99,10,9,1,16,8,22,0.00,8,,192
2013-1-26,24,19,14,20,16,11,92,80,63,30.40,30.31,30.12,10,9,2,15,9,18,0.00,6,,266
2013-1-27,34,26,18,34,23,14,99,83,71,30.40,30.24,29.98,10,8,2,22,10,29,0.00,5,,142
2013-1-28,48,41,34,49,44,35,99,99,97,29.99,29.92,29.87,5,1,0,20,11,23,0.00,8,,201
2013-1-29,58,52,46,58,55,46,100,98,92,29.86,29.65,29.37,10,4,0,25,17,32,0.00,8,,195
2013-1-30,52,38,25,53,39,20,100,95,81,29.58,29.34,29.20,10,6,0,28,9,36,0.00,8,,255
2013-1-31,24,16,8,20,10,1,85,74,63,30.10,29.84,29.58,10,9,5,26,21,34,0.00,7,,273